FENGYUN 1C DEB

Satellite information

Favourite Embed

Satellite Type and Status

DEBRISIN ORBIT

Key statistics

Satellite FENGYUN 1C DEB at a glance.

Uptime

9553

Days in orbit

Revolutions

≈ 14.3

Per day

Orbit

SSO

Sun Synchronous Orbit

Inclination

99.1

Latest

Satellite identification and parameters

Extended collection of information and parameters for FENGYUN 1C DEB.

Object identification

Identified? True

Debris? True

Object name: FENGYUN 1C DEB

International designator: 1999-025ARQ

Object number (NORAD): 30706

Object ID (CCSDS): 30706

Country: PEOPLES REPUBLIC OF CHINA (PRC)

Current information (Y/N): Y

RCS size: SMALL

Orbital parameters

Period: 101.006 minutes

Inclination: 99.0803 deg

SMA: 7184.396 km

Apoapsis: 824.477 km

Periapsis: 788.045 km

RAAN: 74.0966 deg

Eccentricy: 0.0025355

Argument of periapsis: 235.7714 deg

Mean anomaly: 124.1061 deg

Mean motion: 14.25664534 rev/day

Mean motion (dot): 0.00001127 rev/day2

B* drag term: 0.00049361 1/REarth

Two-line elements (TLE)

Creation date: July 4, 2025, 6:39 p.m.

Reference frame: TEME

Reference center: EARTH

Epoch: July 4, 2025, 2:58 a.m. UTC

TLE line 0: 0 FENGYUN 1C DEB

TLE line 1: 1 30706U 99025ARQ 25185.12400664 .00001127 00000-0 49361-3 0 9992

TLE line 2: 2 30706 99.0803 74.0966 0025355 235.7714 124.1061 14.25664534953246

Live tracking on map

Real-time ground track for satellite FENGYUN 1C DEB.

In-orbit conjunctions

A list of the most updated potential collisions computed for object FENGYUN 1C DEB.

Target Orbit TCA Probability of collision Miss distance Type
FENGYUN 1C DEB SSO 2024-11-14 11:17:27 0.0003259293 162.0 (m) DEBRIS
CZ-6A DEB LEO 2024-10-27 19:51:20 0.0002048188 237.0 (m) DEBRIS

Associated space launch

Chinese polar orbiting meteorological satellite

FENGYUN 1C DEB was lifted into orbit during the mission ‘Long March 4B | Feng Yun 1C’, on board a Long March 4B space rocket.

The launch took place on May 10, 1999, 1:33 a.m. from Launch Complex 7.

For more information about the launch, click the button.

Launch to space Long March 4B | Feng Yun 1C
Long March 4B | Feng Yun 1C

Agency: N/A

Status: Launch Successful

Launch date: May 10, 1999, 1:33 a.m. UTC

Rocket: Long March 4B

Launch pad: Launch Complex 7

Location: Taiyuan Satellite Launch Center, People's Republic of China

...

Latest news about this satellite

There are no fresh news available about this satellite. Check back as we update our databases every day.


Newsletter sign-up

Weekly statistics, charts and insights to help you stay on top of the space industry.